Winfield, KS

9:49 PM CDT on May 25, 2018 (GMT -0500)
Strother

Weather History for KWLD - May, 2013

Change the Weather History Date:

Friday, May 24, 2013

  Actual Average Record
Temperature  
Mean Temperature 68 °F -  
Max Temperature 78 °F 79 °F 93 °F (2004)
Min Temperature 57 °F 56 °F 45 °F (2001)
Cooling Degree Days 2    
Growing Degree Days 18 (Base 50)    
Moisture  
Dew Point 62 °F    
Average Humidity 78    
Maximum Humidity 90    
Minimum Humidity 66    
Precipitation  
Precipitation 0.00 in - - ()
Sea Level Pressure  
Sea Level Pressure 30.16 in    
Wind  
Wind Speed 11 mph (ESE)    
Max Wind Speed 16 mph    
Max Gust Speed 25 mph    
Visibility 10 miles    
Events      
Averages and records for this station are not official NWS values.
T = Trace of Precipitation, MM = Missing Value Source: NWS Daily Summary

Daily Weather History Graph

Daily Weather History Graph

Search for Another Location

Airport or City:

Astronomy

May. 24, 2013 Rise Set
Actual Time 6:13 AM CDT 8:37 PM CDT
Civil Twilight 5:43 AM CDT 9:07 PM CDT
Nautical Twilight 5:06 AM CDT 9:44 PM CDT
Astronomical Twilight 4:26 AM CDT 10:24 PM CDT
Moon 8:21 PM CDT (5/24) 5:45 AM CDT (5/24)
Length of Visible Light 15h 23m
Length of Day
14h 24m
Full, 100% of the Moon is Illuminated
May 24
Full
May 24
Full
May 31
Last Quarter
Jun 8
New
Jun 16
First Quarter

Hourly Weather History & Observations

Time (CDT) Temp. Dew Point Humidity Pressure Visibility Wind Dir Wind Speed Gust Speed Precip Events Conditions
12:54 AM 62.1 °F 57.0 °F 84% 30.17 in 10.0 mi East 8.1 mph - N/A   Clear
1:54 AM 61.0 °F 55.9 °F 83% 30.18 in 10.0 mi East 6.9 mph - N/A   Clear
2:54 AM 60.1 °F 55.9 °F 86% 30.19 in 10.0 mi East 9.2 mph 17.3 mph N/A   Mostly Cloudy
3:54 AM 59.0 °F 55.0 °F 87% 30.18 in 10.0 mi East 9.2 mph - N/A   Overcast
4:54 AM 59.0 °F 55.0 °F 87% 30.19 in 10.0 mi East 10.4 mph - N/A   Overcast
5:54 AM 57.9 °F 54.0 °F 87% 30.19 in 10.0 mi East 8.1 mph - N/A   Clear
6:54 AM 57.9 °F 55.0 °F 90% 30.20 in 10.0 mi East 10.4 mph 17.3 mph N/A   Mostly Cloudy
7:54 AM 61.0 °F 55.0 °F 81% 30.18 in 10.0 mi East 16.1 mph 25.3 mph N/A   Scattered Clouds
8:54 AM 62.1 °F 55.9 °F 80% 30.21 in 10.0 mi ESE 13.8 mph 20.7 mph N/A   Clear
9:54 AM 66.0 °F 57.9 °F 75% 30.21 in 10.0 mi ESE 15.0 mph 23.0 mph N/A   Clear
10:38 AM 69.8 °F 59.0 °F 68% 30.22 in 10.0 mi ESE 15.0 mph 19.6 mph N/A   Mostly Cloudy
10:54 AM 68.0 °F 59.0 °F 73% 30.20 in 10.0 mi ESE 15.0 mph 21.9 mph N/A   Overcast
11:21 AM 69.8 °F 60.8 °F 73% 30.21 in 10.0 mi ESE 10.4 mph 20.7 mph N/A   Overcast
11:54 AM 70.0 °F 61.0 °F 73% 30.19 in 10.0 mi ESE 11.5 mph 19.6 mph N/A   Overcast
12:54 PM 73.9 °F 64.0 °F 71% 30.19 in 10.0 mi ESE 11.5 mph 18.4 mph N/A   Overcast
1:54 PM 75.0 °F 64.0 °F 69% 30.17 in 10.0 mi SE 13.8 mph - N/A   Mostly Cloudy
2:24 PM 75.2 °F 66.2 °F 73% 30.19 in 10.0 mi SE 15.0 mph - N/A   Overcast
2:42 PM 77.0 °F 66.2 °F 69% 30.18 in 10.0 mi SE 11.5 mph 19.6 mph N/A   Mostly Cloudy
2:54 PM 78.1 °F 66.9 °F 68% 30.16 in 10.0 mi SE 12.7 mph 21.9 mph N/A   Scattered Clouds
3:54 PM 78.1 °F 66.0 °F 66% 30.14 in 10.0 mi SE 13.8 mph 20.7 mph N/A   Scattered Clouds
4:54 PM 78.1 °F 66.9 °F 68% 30.11 in 10.0 mi SE 16.1 mph 23.0 mph N/A   Overcast
5:54 PM 77.0 °F 68.0 °F 74% 30.09 in 10.0 mi SE 13.8 mph - N/A   Overcast
6:54 PM 77.0 °F 66.9 °F 71% 30.07 in 10.0 mi SE 12.7 mph - N/A   Scattered Clouds
7:54 PM 75.0 °F 66.9 °F 76% 30.07 in 10.0 mi SE 9.2 mph 20.7 mph N/A   Clear
8:54 PM 73.0 °F 66.0 °F 79% 30.06 in 9.0 mi SE 10.4 mph - N/A   Clear
9:54 PM 71.1 °F 66.0 °F 84% 30.09 in 10.0 mi SE 13.8 mph - N/A   Clear
10:34 PM 71.6 °F 66.2 °F 83% 30.12 in 10.0 mi SE 11.5 mph - N/A   Mostly Cloudy
10:54 PM 70.0 °F 66.0 °F 87% 30.11 in 10.0 mi SSE 11.5 mph - N/A   Mostly Cloudy
11:23 PM 69.8 °F 64.4 °F 83% 30.12 in 10.0 mi SSE 12.7 mph - N/A   Scattered Clouds
11:54 PM 69.1 °F 64.9 °F 87% 30.09 in 10.0 mi SSE 12.7 mph - N/A   Clear